Location: Glencliff
(36.1226°N, 86.7183°W)
Time: 05:03:42
(UTC+00:00)

Delta 2 Rocket - Pass Details

Date: 25 August 2019
Orbit: 416 x 810 km, 35.6° (Epoch: 14 October)

Event Time Altitude Azimuth Distance (km) Brightness Sun altitude
Rises 02:30:08 0° 258° (WSW) 2,695 7.5 -23.6°
Reaches altitude 10° 02:32:16 10° 257° (WSW) 1,865 6.5 -24.0°
Enters shadow 02:36:06 68° 230° (SW) 667 3.6 -24.6°
